STARLINK-5734, 55612

Orbit data source: Space-Track

STARLINK-5734, 55612 is a payload satellite owned by SpaceX/Seattle (US) in LEO that was launched on Sun, 12 Feb 2023 UTC via an FALCON 9 launch vehicle from the Air Force Eastern Test Range (AFETR). Payload-class satellites include a variety of spacecraft equipped with specific instruments for various scientific and technological missions. These include communications satellites like Starlink; space stations such as the ISS; scientific satellites like the Hubble; Earth observation satellites from companies like Planet Labs, Umbra, and HawkEye 360; GPS; miniature CubeSats for education and research; and military/defense satellites.

Loading next visibility...
Identifier
55612, 2023-020AV
Orbit
LEO
Country
Flag of USUS
Related business
Manufacturer
SpaceX/Seattle
Mission
Operational Commercial Communications
Bus & Motor
STARLINK, Unknown motor
Mass
305 kg wet, ~290 kg dry
Launch date (UTC)
2023-02-12 (3 years ago)
Launch vehicle
FALCON 9
Launch site
Air Force Eastern Test Range (AFETR)
Object type
Payload
Rocket body
Debris
Shape & HBR
Box + 1 Pan, 10.1 m
Radar Cross Section
13.562 m², Large (>1 m²)

Expand to show TLE details & history
Last TLE update: 9 hours ago

TLE from 9 hours ago
0 STARLINK-5734
1 55612U 23020AV  25311.99827684 -.00001214  00000-0 -74778-4 0  9998
2 55612  43.0050 292.9129 0001306 266.6720  93.3973 15.02536925150767
Epoch: 2025-11-07T23:57Z
TLE epoch observation values (Epoch: 2025-11-07T23:57:31.118Z)
Latitude
-0.00004°
Longitude
-113.901°
Altitude
558.909 km
Speed
7.584 km/s
True Right ascension
19h 31m 39s
True Declination
0° 00' 00"
Sunlit
Object was in daylight at epoch
Visualization orbit readout
Latitude
Unknown
Longitude
Unknown
Altitude
Unknown
Speed
Unknown
Apparent Right ascension
Unknown
Apparent Declination
Unknown
Sunlit
N/A
Visualization observer readout
Local Sidereal Time
05:05:09
Azimuth
Unknown
Elevation
Unknown
Doppler factor
Unknown
Orbital elements
Apogee altitude
561.906 km
Perigee altitude
560.094 km
Semi-major axis
6,939.137 km
Eccentricity
0.00013
Inclination
43.005°
RAAN
292.9129°
Arg. of periapsis
266.672°
True anomaly
93.41224°
Mean anomaly
93.3973°
Eccentric anomaly
93.40477°
Mean motion
3.75478 °/min
Orbital period
95.88 mins
BSTAR
-0.000074778
Loading maneuver chart data...
Computing Atmospheric mass density...
Loading historical data...
Loading historical data...
Loading historical data...
Loading historical data...
Loading historical data...
Loading historical data...
Loading historical data...

Documentation

Showing up to 5 results
|